• In Schweiz
  • Länderverzeichnis
  • Für 7 Tage
  • Wassertemperatur
  • Satellitenkarten
  • Wetterkarte
  • Widgets
  • user-avatar
    Anmelden

    Stündliche Wetter Serebryanytsya

    Heute, 16 Juli, Montag

    Zeit Temperatur Niederschläge Wind Luftdruck Luftfeuchtigkeit
    00:00 +16°C° 0,5 mm 3 m/S 739 mmHg 96%
    01:00 +16°C° 0,5 mm 3 m/S 739 mmHg 96%
    02:00 +16°C° 0 mm 2 m/S 739 mmHg 96%
    03:00 +16°C° 0,3 mm 2 m/S 739 mmHg 96%
    04:00 +15°C° 0,3 mm 2 m/S 739 mmHg 96%
    05:00 +15°C° 0,3 mm 2 m/S 738 mmHg 97%
    06:00 +17°C° 0,4 mm 2 m/S 739 mmHg 94%
    07:00 +18°C° 0,4 mm 2 m/S 739 mmHg 91%
    08:00 +20°C° 0,4 mm 2 m/S 739 mmHg 88%
    09:00 +21°C° 1,4 mm 3 m/S 738 mmHg 83%
    10:00 +22°C° 1,4 mm 3 m/S 738 mmHg 78%
    11:00 +24°C° 1,4 mm 3 m/S 738 mmHg 72%
    12:00 +25°C° 0,7 mm 3 m/S 738 mmHg 71%
    13:00 +25°C° 0,7 mm 3 m/S 737 mmHg 69%
    14:00 +26°C° 0,7 mm 3 m/S 737 mmHg 67%
    15:00 +25°C° 0,7 mm 3 m/S 737 mmHg 70%
    16:00 +25°C° 0,7 mm 3 m/S 737 mmHg 73%
    17:00 +25°C° 0,7 mm 3 m/S 737 mmHg 76%
    18:00 +24°C° 0,4 mm 3 m/S 736 mmHg 81%
    19:00 +21°C° 0,4 mm 2 m/S 736 mmHg 86%
    20:00 +20°C° 0,4 mm 2 m/S 736 mmHg 90%
    21:00 +20°C° 0 mm 2 m/S 736 mmHg 92%
    22:00 +19°C° 0 mm 2 m/S 736 mmHg 94%
    23:00 +19°C° 0 mm 1 m/S 736 mmHg 96%

    Morgen, 17 Juli, Dienstag

    Zeit Temperatur Niederschläge Wind Luftdruck Luftfeuchtigkeit
    00:00 +19°C° 0 mm 1 m/S 736 mmHg 96%
    01:00 +18°C° 0 mm 1 m/S 736 mmHg 97%
    02:00 +17°C° 0 mm 2 m/S 736 mmHg 97%
    03:00 +18°C° 0 mm 1 m/S 735 mmHg 98%
    04:00 +18°C° 0 mm 1 m/S 735 mmHg 98%
    05:00 +18°C° 0 mm 1 m/S 735 mmHg 98%
    06:00 +18°C° 0 mm 2 m/S 735 mmHg 96%
    07:00 +18°C° 0 mm 2 m/S 735 mmHg 94%
    08:00 +19°C° 0 mm 2 m/S 735 mmHg 92%
    09:00 +20°C° 0,1 mm 2 m/S 736 mmHg 89%
    10:00 +21°C° 0,1 mm 2 m/S 736 mmHg 85%
    11:00 +23°C° 0,1 mm 2 m/S 736 mmHg 81%
    12:00 +24°C° 0,1 mm 2 m/S 736 mmHg 78%
    13:00 +24°C° 0,1 mm 3 m/S 735 mmHg 75%
    14:00 +25°C° 0,1 mm 3 m/S 735 mmHg 73%
    15:00 +25°C° 0,2 mm 3 m/S 735 mmHg 74%
    16:00 +25°C° 0,2 mm 2 m/S 735 mmHg 75%
    17:00 +25°C° 0,2 mm 2 m/S 735 mmHg 77%
    18:00 +23°C° 0,4 mm 2 m/S 734 mmHg 81%
    19:00 +22°C° 0,4 mm 1 m/S 734 mmHg 85%
    20:00 +21°C° 0,4 mm 1 m/S 734 mmHg 89%
    21:00 +21°C° 0,2 mm 1 m/S 734 mmHg 90%
    22:00 +21°C° 0,2 mm 1 m/S 734 mmHg 92%
    23:00 +20°C° 0,2 mm 1 m/S 734 mmHg 93%

    übermorgen, 18 Juli, Mittwoch

    Zeit Temperatur Niederschläge Wind Luftdruck Luftfeuchtigkeit
    00:00 +20°C° 0,1 mm 1 m/S 734 mmHg 94%
    01:00 +19°C° 0,1 mm 2 m/S 734 mmHg 95%
    02:00 +18°C° 0,1 mm 2 m/S 734 mmHg 96%
    03:00 +18°C° 0,1 mm 2 m/S 734 mmHg 97%
    04:00 +18°C° 0,1 mm 2 m/S 734 mmHg 97%
    05:00 +19°C° 0,1 mm 1 m/S 734 mmHg 98%
    06:00 +20°C° 0,1 mm 1 m/S 734 mmHg 96%
    07:00 +21°C° 0,1 mm 1 m/S 734 mmHg 94%
    08:00 +22°C° 0,1 mm 1 m/S 734 mmHg 92%
    09:00 +23°C° 0,2 mm 1 m/S 734 mmHg 88%
    10:00 +24°C° 0,2 mm 1 m/S 734 mmHg 83%
    11:00 +25°C° 0,2 mm 1 m/S 734 mmHg 79%
    12:00 +26°C° 0,7 mm 1 m/S 734 mmHg 77%
    13:00 +26°C° 0,7 mm 1 m/S 734 mmHg 76%
    14:00 +27°C° 0,7 mm 2 m/S 734 mmHg 75%
    15:00 +27°C° 0,9 mm 2 m/S 734 mmHg 76%
    16:00 +27°C° 0,9 mm 2 m/S 734 mmHg 76%
    17:00 +27°C° 0,9 mm 2 m/S 734 mmHg 77%
    18:00 +26°C° 0,7 mm 2 m/S 734 mmHg 81%
    19:00 +25°C° 0,7 mm 2 m/S 734 mmHg 84%
    20:00 +24°C° 0,7 mm 2 m/S 734 mmHg 88%
    21:00 +23°C° 0,3 mm 2 m/S 734 mmHg 90%
    22:00 +23°C° 0,3 mm 2 m/S 734 mmHg 93%
    23:00 +21°C° 0,3 mm 2 m/S 734 mmHg 95%

    19 Juli, Donnerstag

    Zeit Temperatur Niederschläge Wind Luftdruck Luftfeuchtigkeit
    00:00 +21°C° 0,2 mm 2 m/S 734 mmHg 95%
    01:00 +20°C° 0,2 mm 2 m/S 734 mmHg 96%
    02:00 +20°C° 0,2 mm 2 m/S 735 mmHg 97%
    03:00 +20°C° 0,2 mm 2 m/S 735 mmHg 97%
    04:00 +19°C° 0,2 mm 2 m/S 735 mmHg 98%
    05:00 +19°C° 0,2 mm 2 m/S 735 mmHg 98%
    06:00 +20°C° 0,2 mm 2 m/S 735 mmHg 96%
    07:00 +21°C° 0,2 mm 3 m/S 735 mmHg 94%
    08:00 +22°C° 0,2 mm 3 m/S 735 mmHg 92%
    09:00 +24°C° 0,1 mm 3 m/S 736 mmHg 86%
    10:00 +25°C° 0,1 mm 3 m/S 736 mmHg 81%
    11:00 +26°C° 0,1 mm 3 m/S 736 mmHg 76%
    12:00 +27°C° 0,4 mm 4 m/S 736 mmHg 73%
    13:00 +27°C° 0,4 mm 4 m/S 736 mmHg 70%
    14:00 +28°C° 0,4 mm 4 m/S 736 mmHg 67%
    15:00 +28°C° 0,5 mm 4 m/S 736 mmHg 69%
    16:00 +28°C° 0,5 mm 4 m/S 736 mmHg 71%
    17:00 +27°C° 0,5 mm 4 m/S 736 mmHg 72%
    18:00 +26°C° 0,2 mm 4 m/S 736 mmHg 77%
    19:00 +25°C° 0,2 mm 3 m/S 736 mmHg 82%
    20:00 +24°C° 0,2 mm 3 m/S 736 mmHg 87%
    21:00 +22°C° 0,2 mm 3 m/S 737 mmHg 90%
    22:00 +21°C° 0,2 mm 3 m/S 737 mmHg 92%
    23:00 +20°C° 0,2 mm 3 m/S 737 mmHg 95%

    20 Juli, Freitag

    Zeit Temperatur Niederschläge Wind Luftdruck Luftfeuchtigkeit
    00:00 +20°C° 0 mm 3 m/S 737 mmHg 96%
    01:00 +19°C° 0 mm 3 m/S 737 mmHg 96%
    02:00 +19°C° 0 mm 3 m/S 737 mmHg 97%
    03:00 +19°C° 0 mm 3 m/S 737 mmHg 97%
    04:00 +19°C° 0 mm 3 m/S 737 mmHg 98%
    05:00 +19°C° 0 mm 4 m/S 737 mmHg 98%
    06:00 +19°C° 0 mm 4 m/S 737 mmHg 96%
    07:00 +19°C° 0 mm 4 m/S 738 mmHg 95%
    08:00 +20°C° 0 mm 4 m/S 738 mmHg 93%
    09:00 +21°C° 0,1 mm 4 m/S 738 mmHg 91%
    10:00 +21°C° 0,1 mm 4 m/S 738 mmHg 88%
    11:00 +22°C° 0,1 mm 4 m/S 738 mmHg 85%
    12:00 +23°C° 0,5 mm 5 m/S 738 mmHg 80%
    13:00 +25°C° 0,5 mm 5 m/S 738 mmHg 75%
    14:00 +27°C° 0,5 mm 6 m/S 738 mmHg 70%
    15:00 +27°C° 0,3 mm 5 m/S 738 mmHg 69%
    16:00 +27°C° 0,3 mm 5 m/S 738 mmHg 68%
    17:00 +27°C° 0,3 mm 5 m/S 738 mmHg 67%
    18:00 +26°C° 0,1 mm 4 m/S 738 mmHg 72%
    19:00 +23°C° 0,1 mm 4 m/S 738 mmHg 76%
    20:00 +22°C° 0,1 mm 4 m/S 738 mmHg 81%
    21:00 +21°C° 0 mm 4 m/S 738 mmHg 83%
    22:00 +20°C° 0 mm 4 m/S 739 mmHg 86%
    23:00 +19°C° 0 mm 4 m/S 739 mmHg 89%

    21 Juli, Samstag

    Zeit Temperatur Niederschläge Wind Luftdruck Luftfeuchtigkeit
    00:00 +19°C° 0 mm 3 m/S 739 mmHg 91%
    01:00 +18°C° 0 mm 3 m/S 739 mmHg 93%
    02:00 +18°C° 0 mm 3 m/S 739 mmHg 94%
    03:00 +17°C° 0 mm 3 m/S 739 mmHg 95%
    04:00 +17°C° 0 mm 3 m/S 739 mmHg 95%
    05:00 +17°C° 0 mm 3 m/S 739 mmHg 96%
    06:00 +18°C° 0 mm 3 m/S 739 mmHg 91%
    07:00 +20°C° 0 mm 3 m/S 739 mmHg 87%
    08:00 +21°C° 0 mm 3 m/S 739 mmHg 82%
    09:00 +22°C° 0 mm 3 m/S 739 mmHg 76%
    10:00 +25°C° 0 mm 4 m/S 739 mmHg 70%
    11:00 +26°C° 0 mm 4 m/S 739 mmHg 63%
    12:00 +26°C° 0,1 mm 4 m/S 739 mmHg 61%
    13:00 +27°C° 0,1 mm 3 m/S 739 mmHg 60%
    14:00 +27°C° 0,1 mm 3 m/S 739 mmHg 58%
    15:00 +27°C° 0,4 mm 3 m/S 739 mmHg 60%
    16:00 +27°C° 0,4 mm 3 m/S 738 mmHg 62%
    17:00 +27°C° 0,4 mm 3 m/S 738 mmHg 64%
    18:00 +25°C° 0,4 mm 2 m/S 738 mmHg 70%
    19:00 +24°C° 0,4 mm 2 m/S 738 mmHg 76%
    20:00 +23°C° 0,4 mm 2 m/S 738 mmHg 81%
    21:00 +21°C° 0 mm 2 m/S 738 mmHg 84%
    22:00 +20°C° 0 mm 2 m/S 738 mmHg 86%
    23:00 +19°C° 0 mm 2 m/S 739 mmHg 88%
    Mehr zeigen